Overview Statistics Trail Chart Weather Telemetry Raw packets
 

This is the latest recevied weather packets stored in our database for station/object KB8TTR. If no packets are shown the sender has not sent any weather packets the latest 10 day(s).

<< 1 2 3 4 5 >>
Time Temp. Humidity Pressure Rain* Wind** Luminosity Snow
1788620801 23.33° C 95% 1015.7 hPa 0 mm - 113 W/m² -
1788620499 23.33° C 94% 1015.6 hPa 0 mm - 89 W/m² -
1788620197 23.33° C 94% 1015.6 hPa 0 mm - 49 W/m² -
1788619897 23.33° C 93% 1015.3 hPa 0 mm - 28 W/m² -
1788619592 23.33° C 93% 1015.6 hPa 0 mm - 29 W/m² -
1788619291 23.33° C 93% 1015.4 hPa 0 mm - 33 W/m² -
1788618995 23.33° C 92% 1015.3 hPa 0 mm - 30 W/m² -
1788618686 23.33° C 91% 1015.5 hPa 0 mm - 38 W/m² -
1788618385 23.89° C 91% 1015.3 hPa 0 mm - 65 W/m² -
1788618085 23.89° C 90% 1015.4 hPa 0 mm - 89 W/m² -
1788617785 24.44° C 90% 1015.2 hPa 0 mm - 105 W/m² -
1788617481 24.44° C 90% 1015.2 hPa 0 mm - 151 W/m² -
1788617176 24.44° C 91% 1015.1 hPa 0 mm - 159 W/m² -
1788616875 24.44° C 91% 1015.1 hPa 0 mm - 254 W/m² -
1788616571 23.89° C 93% 1015.2 hPa 0 mm - 241 W/m² -
1788616266 23.89° C 94% 1015.1 hPa 0 mm - 215 W/m² -
1788615961 23.89° C 95% 1015.4 hPa 0 mm - 177 W/m² -
1788615669 23.89° C 96% 1015.2 hPa 0 mm - 178 W/m² -
1788615355 23.33° C 97% 1015.4 hPa 0 mm - 173 W/m² -
1788615054 23.33° C 98% 1015.4 hPa 0 mm - 185 W/m² -
1788614754 22.78° C 99% 1015.4 hPa 0 mm - 184 W/m² -
1788614449 22.78° C 99% 1015.5 hPa 0 mm - 173 W/m² -
1788614145 22.78° C 99% 1015.5 hPa 0 mm - 174 W/m² -
1788613840 22.78° C 99% 1015.4 hPa 0 mm - 155 W/m² -
1788613539 22.78° C 99% 1015.5 hPa 0 mm - 154 W/m² -

* Rain latest hour (hover to see other rain measurements)
** Current wind speed in m/s (hover to see current wind gust speed)